This demonstration page uses our WeatherBlox Daily Observations layout. Learn more.

Left ArrowRight Arrow

Hourly Observations for May 24, 2016

Temp ( °F °C ) Dew Point ( °F °C ) Humidity (%) Winds ( mph kmh ) Pressure ( in mb ) Visibility ( mi km ) Precip ( " mm )
12:53 am 00:53 Clear 54 12.2 51 10.6 90 90 N N/A 30.04 1017 10 16 N/A
1:53 am 01:53 Clear 52 11.1 51 10.6 97 97 N N/A 30.04 1017 10 16 N/A
2:53 am 02:53 Clear 51 10.6 50 10 96 96 N N/A 30.03 1017 9 14 N/A
3:53 am 03:53 Clear 51 10.6 49 9.4 92 92 N N/A 30.03 1017 8 13 N/A
4:53 am 04:53 Clear with Mist and Fog 50 10 48 8.9 93 93 N N/A 30.04 1017 6 10 N/A
5:53 am 05:53 Clear with Mist and Fog 49 9.4 48 8.9 97 97 N N/A 30.07 1018 4 6 N/A
6:53 am 06:53 Sunny with Mist and Fog 51 10.6 50 10 96 96 N N/A 30.10 1019 5 8 N/A
7:53 am 07:53 Sunny with Mist and Fog 57 13.9 53 11.7 87 87 N N/A 30.11 1020 6 10 N/A
8:53 am 08:53 Sunny 63 17.2 56 13.3 78 78 N N/A 30.12 1020 7 11 N/A
9:53 am 09:53 Sunny 69 20.6 56 13.3 63 63 N N/A 30.12 1020 10 16 N/A
10:53 am 10:53 Sunny 74 23.3 55 12.8 52 52 W 6 9 30.12 1020 10 16 N/A
11:53 am 11:53 Sunny 76 24.4 50 10 40 40 W 6 9 30.11 1020 10 16 N/A
12:53 pm 12:53 Sunny 78 25.6 52 11.1 40 40 W 6 9 30.11 1020 10 16 N/A
1:53 pm 13:53 Sunny 79 26.1 48 8.9 34 34 W 10 17 30.10 1019 10 16 N/A
2:53 pm 14:53 Sunny 80 26.7 48 8.9 33 33 VRB 6 9 30.08 1019 10 16 N/A
3:53 pm 15:53 Sunny 81 27.2 47 8.3 30 30 VRB 6 9 30.07 1018 10 16 N/A
4:53 pm 16:53 Sunny 82 27.8 46 7.8 28 28 VRB 5 7 30.06 1018 10 16 N/A
5:53 pm 17:53 Sunny 82 27.8 45 7.2 27 27 WNW 5 7 30.05 1018 10 16 N/A
6:53 pm 18:53 Sunny 81 27.2 47 8.3 30 30 SW 6 9 30.05 1018 10 16 N/A
7:53 pm 19:53 Sunny 79 26.1 51 10.6 38 38 SSW 3 6 30.06 1018 10 16 N/A
8:53 pm 20:53 Sunny 67 19.4 54 12.2 63 63 N N/A 30.06 1018 10 16 N/A
9:53 pm 21:53 Clear 62 16.7 54 12.2 75 75 N N/A 30.07 1018 10 16 N/A
10:53 pm 22:53 Clear 59 15 54 12.2 83 83 N N/A 30.09 1019 10 16 N/A
11:53 pm 23:53 Clear 59 15 53 11.7 81 81 N N/A 30.09 1019 10 16 N/A

Powered by AerisWeather